Weather in Shidlovka

Russia / Belgorod Oblast     50°31′27″N   37°37′49″E
temp.,
°C
wind,
m/s
gust,
m/s
humid.,
%
clouds,
%
prec.,
mm/h
press.,
hPa
HPBL,
m
28 september, tue
tue2800:00+7n36925 0.0 1020127
03:00+7n259099 0.0 1020173
06:00+8nne4890100 0.3 1021314
09:00+9nne4686100 0.5 1022384
12:00+12nne4569100 0.3 1023978
15:00+12nne456286 0.7 10241164
18:00+10ne697391 0.1 1026592
21:00+7ne598377 0.1 1028511
29 september, wed
wed2900:00+7ne4884100 0.0 1029639
03:00+7ne5881100 0.0 1030565
06:00+6ne5878100 0.0 1031517
09:00+8ene57685 0.0 1032715
12:00+11ene564319 0.0 10321359
15:00+12ne56375 0.0 10301486
18:00+9ne36481 0.0 1031133
21:00+6ne36572 0.0 1032120
30 september, thu
thu3000:00+5ne34635 0.0 103363
03:00+4ne22675 0.0 103330
06:00+3nne22715 0.0 103433
09:00+8ne35550 0.0 1034329
12:00+12ene34411 0.0 10341202
15:00+13ne34385 0.0 10321428
18:00+10ene33515 0.0 103235
21:00+7ene23625 0.0 103436
1 october, fri
fri100:00+6ene22695 0.0 103428
03:00+5ne22735 0.0 103517
06:00+5ne22775 0.0 103520
09:00+9ene34585 0.0 1036312
12:00+13e45435 0.0 10351250
15:00+14e454234 0.0 10341624
18:00+11e34555 0.0 103460
21:00+8ene34665 0.0 103572
2 october, sat
sat200:00+7e34725 0.0 103554
03:00+6ene227721 0.0 103524
06:00+7ene227593 0.0 103427
09:00+9ene2466100 0.0 1034209
12:00+11e3461100 0.0 1034454
15:00+12ene4560100 0.0 1033676
18:00+11ene366998 0.0 1032221
21:00+10e3774100 0.0 1032218